H1 CPF 1 NER 2022 1 14 9 5141 glonass142 H2 2001801 9142 45358 2022 1 14 0 0 0 2022 1 17 23 45 0 900 1 1 0 0 0 H9 10 0 59593 0.00000 0 -10177006.228 -21457073.688 -9304405.680 10 0 59593 900.00000 0 -10601006.979 -22337113.268 -6275507.154 10 0 59593 1800.00000 0 -10954505.192 -22827694.591 -3124704.483 10 0 59593 2700.00000 0 -11181398.198 -22934492.663 86778.128 10 0 59593 3600.00000 0 -11229102.671 -22676142.233 3296580.271 10 0 59593 4500.00000 0 -11050989.619 -22083322.764 6442416.877 10 0 59593 5400.00000 0 -10608575.602 -21197357.601 9463284.982 10 0 59593 6300.00000 0 -9873377.681 -20068387.523 12300642.347 10 0 59593 7200.00000 0 -8828354.032 -18753196.415 14899535.221 10 0 59593 8100.00000 0 -7468869.659 -17312780.926 17209654.002 10 0 59593 9000.00000 0 -5803146.540 -15809766.180 19186297.181 10 0 59593 9900.00000 0 -3852179.113 -14305775.556 20791225.865 10 0 59593 10800.00000 0 -1649118.045 -12858863.956 21993393.545 10 0 59593 11700.00000 0 761852.927 -11521120.907 22769538.151 10 0 59593 12600.00000 0 3327101.446 -10336542.539 23104625.905 10 0 59593 13500.00000 0 5985527.927 -9339260.132 22992139.253 10 0 59593 14400.00000 0 8670863.339 -8552198.079 22434203.712 10 0 59593 15300.00000 0 11314189.746 -7986216.483 21441551.255 10 0 59593 16200.00000 0 13846580.878 -7639773.626 20033320.558 10 0 59593 17100.00000 0 16201754.830 -7499122.179 18236697.205 10 0 59593 18000.00000 0 18318630.000 -7539031.072 16086399.759 10 0 59593 18900.00000 0 20143679.116 -7724003.120 13624020.363 10 0 59593 19800.00000 0 21632983.926 -8009937.783 10897231.240 10 0 59593 20700.00000 0 22753905.033 -8346169.744 7958871.305 10 0 59593 21600.00000 0 23486296.941 -8677797.838 4865929.436 10 0 59593 22500.00000 0 23823217.002 -8948206.296 1678443.408 10 0 59593 23400.00000 0 23771097.846 -9101671.706 -1541664.483 10 0 59593 24300.00000 0 23349375.345 -9085944.887 -4731792.499 10 0 59593 25200.00000 0 22589587.142 -8854697.485 -7829881.455 10 0 59593 26100.00000 0 21533979.153 -8369728.435 -10775629.140 10 0 59593 27000.00000 0 20233678.535 -7602835.236 -13511672.655 10 0 59593 27900.00000 0 18746510.078 -6537269.045 -15984714.722 10 0 59593 28800.00000 0 17134548.304 -5168710.157 -18146570.976 10 0 59593 29700.00000 0 15461508.832 -3505720.784 -19955117.017 10 0 59593 30600.00000 0 13790089.374 -1569654.206 -21375116.093 10 0 59593 31500.00000 0 12179372.853 605977.384 -22378910.715 10 0 59593 32400.00000 0 10682402.276 2976651.143 -22946964.523 10 0 59593 33300.00000 0 9344029.562 5488450.805 -23068243.717 10 0 59593 34200.00000 0 8199128.708 8080085.799 -22740430.698 10 0 59593 35100.00000 0 7271247.997 10685228.272 -21969965.962 10 0 59593 36000.00000 0 6571757.193 13235070.642 -20771917.690 10 0 59593 36900.00000 0 6099524.593 15660996.895 -19169681.929 10 0 59593 37800.00000 0 5841136.214 17897256.216 -17194519.578 10 0 59593 38700.00000 0 5771646.424 19883527.431 -14884939.591 10 0 59593 39600.00000 0 5855826.828 21567267.338 -12285940.923 10 0 59593 40500.00000 0 6049859.117 22905745.256 -9448128.494 10 0 59593 41400.00000 0 6303398.890 23867679.409 -6426720.906 10 0 59593 42300.00000 0 6561921.901 24434407.534 -3280469.924 10 0 59593 43200.00000 0 6769252.385 24600543.944 -70513.305 10 0 59593 44100.00000 0 6870165.664 24374096.865 3140816.193 10 0 59593 45000.00000 0 6812954.392 23776042.591 6291201.931 10 0 59593 45900.00000 0 6551849.616 22839375.824 9319550.925 10 0 59593 46800.00000 0 6049194.274 21607677.331 12167174.333 10 0 59593 47700.00000 0 5277277.472 20133260.072 14778918.188 10 0 59593 48600.00000 0 4219752.335 18474972.206 17104223.033 10 0 59593 49500.00000 0 2872577.783 16695749.228 19098092.777 10 0 59593 50400.00000 0 1244444.585 14860017.549 20721954.946 10 0 59593 51300.00000 0 -643332.586 13031057.428 21944396.889 10 0 59593 52200.00000 0 -2757453.360 11268434.400 22741764.830 10 0 59593 53100.00000 0 -5053774.507 9625605.230 23098615.189 10 0 59593 54000.00000 0 -7478911.250 8147796.870 23008010.268 10 0 59593 54900.00000 0 -9972232.087 6870245.487 22471653.053 10 0 59593 55800.00000 0 -12468165.956 5816867.863 21499858.573 10 0 59593 56700.00000 0 -14898727.766 4999419.580 20111362.047 10 0 59593 57600.00000 0 -17196159.095 4417174.532 18332966.773 10 0 59593 58500.00000 0 -19295575.731 4057138.807 16199037.518 10 0 59593 59400.00000 0 -21137513.042 3894790.026 13750847.959 10 0 59593 60300.00000 0 -22670263.899 3895311.266 11035793.440 10 0 59593 61200.00000 0 -23851911.799 4015268.119 8106483.049 10 0 59593 62100.00000 0 -24651974.081 4204658.602 5019727.552 10 0 59593 63000.00000 0 -25052585.939 4409249.653 1835441.975 10 0 59593 63900.00000 0 -25049174.708 4573101.526 -1384516.160 10 0 59593 64800.00000 0 -24650595.262 4641172.939 -4577550.450 10 0 59593 65700.00000 0 -23878719.816 4561895.968 -7681547.330 10 0 59593 66600.00000 0 -22767498.607 4289610.567 -10636091.398 10 0 59593 67500.00000 0 -21361530.372 3786754.153 -13383649.863 10 0 59593 68400.00000 0 -19714202.435 3025711.890 -15870702.100 10 0 59593 69300.00000 0 -17885478.666 1990247.578 -18048791.273 10 0 59593 70200.00000 0 -15939428.528 676452.821 -19875476.715 10 0 59593 71100.00000 0 -13941601.453 -906827.421 -21315167.836 10 0 59593 72000.00000 0 -11956357.313 -2738112.417 -22339822.727 10 0 59593 72900.00000 0 -10044265.454 -4783942.879 -22929497.645 10 0 59593 73800.00000 0 -8259681.630 -7000051.360 -23072736.515 10 0 59593 74700.00000 0 -6648604.553 -9332997.535 -22766792.949 10 0 59593 75600.00000 0 -5246901.554 -11722200.429 -22017680.627 10 0 59593 76500.00000 0 -4078977.155 -14102282.908 -20840051.326 10 0 59593 77400.00000 0 -3156939.393 -16405630.387 -19256903.302 10 0 59593 78300.00000 0 -2480297.569 -18565056.835 -17299126.081 10 0 59593 79200.00000 0 -2036202.493 -20516466.599 -15004890.932 10 0 59593 80100.00000 0 -1800217.394 -22201400.688 -12418899.373 10 0 59593 81000.00000 0 -1737585.115 -23569361.177 -9591504.890 10 0 59593 81900.00000 0 -1804936.342 -24579816.818 -6577725.464 10 0 59593 82800.00000 0 -1952365.067 -25203806.338 -3436166.840 10 0 59593 83700.00000 0 -2125782.077 -25425073.141 -227878.049 10 0 59593 84600.00000 0 -2269445.773 -25240684.831 2984838.028 10 0 59593 85500.00000 0 -2328562.425 -24661112.733 6139635.393 10 0 59594 0.00000 0 -2251845.350 -23709769.457 9175332.947 10 0 59594 900.00000 0 -1993924.534 -22422024.445 12033097.939 10 0 59594 1800.00000 0 -1517505.054 -20843741.153 14657577.985 10 0 59594 2700.00000 0 -795183.249 -19029396.118 16997965.764 10 0 59594 3600.00000 0 189155.670 -17039860.114 19008972.436 10 0 59594 4500.00000 0 1439417.286 -14939933.657 20651693.570 10 0 59594 5400.00000 0 2946893.720 -12795739.257 21894351.719 10 0 59594 6300.00000 0 4690392.907 -10672078.260 22712902.460 10 0 59594 7200.00000 0 6636896.783 -8629861.235 23091493.133 10 0 59594 8100.00000 0 8742722.105 -6723717.490 23022766.304 10 0 59594 9000.00000 0 10955137.059 -4999881.675 22508002.509 10 0 59594 9900.00000 0 13214367.981 -3494444.163 21557099.630 10 0 59594 10800.00000 0 15455914.515 -2232036.727 20188388.959 10 0 59594 11700.00000 0 17613078.663 -1225007.372 18428290.777 10 0 59594 12600.00000 0 19619603.947 -473118.121 16310815.076 10 0 59594 13500.00000 0 21412316.053 36221.987 13876915.846 10 0 59594 14400.00000 0 22933655.670 327198.528 11173710.035 10 0 59594 15300.00000 0 24133998.087 434339.659 8253575.113 10 0 59594 16200.00000 0 24973662.473 400822.872 5173141.635 10 0 59594 17100.00000 0 25424526.149 276411.772 1992199.497 10 0 59594 18000.00000 0 25471175.231 115109.918 -1227461.191 10 0 59594 18900.00000 0 25111542.264 -27368.823 -4423252.179 10 0 59594 19800.00000 0 24357002.823 -96205.796 -7533008.428 10 0 59594 20700.00000 0 23231925.895 -40047.751 -10496204.244 10 0 59594 21600.00000 0 21772695.971 186568.390 -13255139.735 10 0 59594 22500.00000 0 20026247.234 621040.346 -15756073.541 10 0 59594 23400.00000 0 18048171.101 1290868.601 -17950278.740 10 0 59594 24300.00000 0 15900476.452 2212247.022 -19795000.547 10 0 59594 25200.00000 0 13649096.704 3389137.254 -21254296.423 10 0 59594 26100.00000 0 11361248.591 4812867.528 -22299741.677 10 0 59594 27000.00000 0 9102753.682 6462274.178 -22910986.526 10 0 59594 27900.00000 0 6935435.010 8304381.133 -23076153.671 10 0 59594 28800.00000 0 4914697.965 10295589.674 -22792068.642 10 0 59594 29700.00000 0 3087396.427 12383329.140 -22064318.637 10 0 59594 30600.00000 0 1490072.921 14508099.782 -20907138.958 10 0 59594 31500.00000 0 147645.625 16605822.197 -19343129.575 10 0 59594 32400.00000 0 -927404.081 18610394.952 -17402807.735 10 0 59594 33300.00000 0 -1735311.024 20456353.175 -15124005.691 10 0 59594 34200.00000 0 -2288762.690 22081516.538 -12551125.815 10 0 59594 35100.00000 0 -2612105.836 23429515.675 -9734268.070 10 0 59594 36000.00000 0 -2740058.700 24452091.180 -6728247.412 10 0 59594 36900.00000 0 -2715985.083 25111069.025 -3591520.885 10 0 59594 37800.00000 0 -2589804.948 25379930.000 -385045.900 10 0 59594 38700.00000 0 -2415631.359 25244908.029 2828907.580 10 0 59594 39600.00000 0 -2249234.786 24705572.087 5987967.308 10 0 59594 40500.00000 0 -2145442.847 23774868.301 9030867.706 10 0 59594 41400.00000 0 -2155585.807 22478621.377 11898634.045 10 0 59594 42300.00000 0 -2325095.885 20854517.136 14535718.988 10 0 59594 43200.00000 0 -2691361.590 18950609.372 16891070.062 10 0 59594 44100.00000 0 -3281927.278 16823413.755 18919108.176 10 0 59594 45000.00000 0 -4113113.483 14535668.373 20580599.181 10 0 59594 45900.00000 0 -5189115.898 12153853.828 21843402.798 10 0 59594 46800.00000 0 -6501620.982 9745575.317 22683085.576 10 0 59594 47700.00000 0 -8029954.741 7376914.505 23083387.031 10 0 59594 48600.00000 0 -9741759.320 5109859.861 23036530.811 10 0 59594 49500.00000 0 -11594170.420 2999920.665 22543375.362 10 0 59594 50400.00000 0 -13535447.809 1094022.396 21613401.255 10 0 59594 51300.00000 0 -15506992.705 -571230.478 20264535.155 10 0 59594 52200.00000 0 -17445669.635 -1970853.219 18522813.085 10 0 59594 53100.00000 0 -19286337.526 -3092287.809 16421888.504 10 0 59594 54000.00000 0 -20964485.828 -3935685.171 14002393.475 10 0 59594 54900.00000 0 -22418866.562 -4513651.174 11311163.924 10 0 59594 55800.00000 0 -23594012.746 -4850467.071 8400342.763 10 0 59594 56700.00000 0 -24442537.790 -4980817.124 5326377.175 10 0 59594 57600.00000 0 -24927119.040 -4948076.855 2148928.636 10 0 59594 58500.00000 0 -25022081.301 -4802234.046 -1070283.488 10 0 59594 59400.00000 0 -24714512.616 -4597530.495 -4268682.429 10 0 59594 60300.00000 0 -24004864.012 -4389924.643 -7384054.933 10 0 59594 61200.00000 0 -22907006.548 -4234483.185 -10355768.187 10 0 59594 62100.00000 0 -21447741.958 -4182813.097 -13125958.213 10 0 59594 63000.00000 0 -19665786.318 -4280644.116 -15640665.728 10 0 59594 63900.00000 0 -17610268.664 -4565665.431 -17850896.247 10 0 59594 64800.00000 0 -15338807.079 -5065709.676 -19713582.996 10 0 59594 65700.00000 0 -12915242.706 -5797362.532 -21192433.143 10 0 59594 66600.00000 0 -10407126.742 -6765058.133 -22258640.307 10 0 59594 67500.00000 0 -7883065.701 -7960699.709 -22891449.174 10 0 59594 68400.00000 0 -5410036.193 -9363822.602 -23078561.118 10 0 59594 69300.00000 0 -3050781.587 -10942293.584 -22816372.918 10 0 59594 70200.00000 0 -861399.214 -12653517.689 -22110044.110 10 0 59594 71100.00000 0 1110781.480 -14446102.217 -20973391.909 10 0 59594 72000.00000 0 2828941.822 -16261908.085 -19428616.041 10 0 59594 72900.00000 0 4268066.044 -18038402.389 -17505859.233 10 0 59594 73800.00000 0 5415730.074 -19711213.250 -15242612.291 10 0 59594 74700.00000 0 6272355.595 -21216779.411 -12682975.856 10 0 59594 75600.00000 0 6850920.762 -22494983.151 -9876793.721 10 0 59594 76500.00000 0 7176141.866 -23491655.808 -6878675.130 10 0 59594 77400.00000 0 7283162.507 -24160850.633 -3746925.759 10 0 59594 78300.00000 0 7215807.583 -24466787.697 -542408.777 10 0 59594 79200.00000 0 7024477.582 -24385389.494 2672641.307 10 0 59594 80100.00000 0 6763773.581 -23905343.281 5835828.420 10 0 59594 81000.00000 0 6489954.404 -23028646.230 8885804.538 10 0 59594 81900.00000 0 6258334.061 -21770611.200 11763455.641 10 0 59594 82800.00000 0 6120729.687 -20159333.580 14413041.119 10 0 59594 83700.00000 0 6123067.641 -18234642.018 16783265.095 10 0 59594 84600.00000 0 6303248.445 -16046577.124 18828259.728 10 0 59594 85500.00000 0 6689360.048 -13653461.645 20508462.367 10 0 59595 0.00000 0 7298314.151 -11119642.289 21791370.702 10 0 59595 900.00000 0 8134963.012 -8512994.990 22652163.056 10 0 59595 1800.00000 0 9191732.966 -5902299.653 23074171.217 10 0 59595 2700.00000 0 10448791.522 -3354587.418 23049199.831 10 0 59595 3600.00000 0 11874741.110 -932572.371 22577684.859 10 0 59595 4500.00000 0 13427811.891 1307728.628 21668688.916 10 0 59595 5400.00000 0 15057505.199 3319090.513 20339733.161 10 0 59595 6300.00000 0 16706620.566 5064803.329 18616468.283 10 0 59595 7200.00000 0 18313583.190 6519953.623 16532189.955 10 0 59595 8100.00000 0 19814975.980 7672211.362 14127206.895 10 0 59595 9000.00000 0 21148171.399 8522090.013 11448072.402 10 0 59595 9900.00000 0 22253953.526 9082669.089 8546693.045 10 0 59595 10800.00000 0 23079020.662 9378790.871 5479330.656 10 0 59595 11700.00000 0 23578263.100 9445765.005 2305516.128 10 0 59595 12600.00000 0 23716719.560 9327635.468 -913104.248 10 0 59595 13500.00000 0 23471128.844 9075083.094 -4113967.629 10 0 59595 14400.00000 0 22831009.929 8743052.565 -7234815.051 10 0 59595 15300.00000 0 21799223.435 8388204.715 -10214909.045 10 0 59595 16200.00000 0 20391989.242 8066302.771 -12996223.926 10 0 59595 17100.00000 0 18638357.996 7829644.209 -15524584.706 10 0 59595 18000.00000 0 16579157.536 7724648.130 -17750731.372 10 0 59595 18900.00000 0 14265457.514 7789701.563 -19631286.999 10 0 59595 19800.00000 0 11756615.981 8053357.128 -21129610.111 10 0 59595 20700.00000 0 9117989.494 8532959.467 -22216514.093 10 0 59595 21600.00000 0 6418402.435 9233759.565 -22870839.362 10 0 59595 22500.00000 0 3727481.315 10148555.292 -23079866.997 10 0 59595 23400.00000 0 1112965.540 11257873.973 -22839565.783 10 0 59595 24300.00000 0 -1361893.234 12530689.791 -22154668.023 10 0 59595 25200.00000 0 -3640734.844 13925646.062 -21038572.892 10 0 59595 26100.00000 0 -5676197.628 15392730.943 -19513079.502 10 0 59595 27000.00000 0 -7431641.568 16875335.941 -17607955.275 10 0 59595 27900.00000 0 -8882416.807 18312610.363 -15360348.365 10 0 59595 28800.00000 0 -10016625.941 19642012.280 -12814056.117 10 0 59595 29700.00000 0 -10835350.030 20801948.318 -10018664.259 10 0 59595 30600.00000 0 -11352330.925 21734390.916 -7028574.150 10 0 59595 31500.00000 0 -11593125.375 22387362.626 -3901937.713 10 0 59595 32400.00000 0 -11593768.699 22717182.896 -699521.324 10 0 59595 33300.00000 0 -11399006.335 22690382.861 2516478.645 10 0 59595 34200.00000 0 -11060169.563 22285207.890 5683645.057 10 0 59595 35100.00000 0 -10632786.459 21492645.121 8740550.250 10 0 59595 36000.00000 0 -10174029.873 20316933.302 11627943.726 10 0 59595 36900.00000 0 -9740110.649 18775534.013 14289894.377 10 0 59595 37800.00000 0 -9383726.171 16898565.855 16674865.612 10 0 59595 38700.00000 0 -9151671.517 14727725.365 18736703.397 10 0 59595 39600.00000 0 -9082713.340 12314739.643 20435518.971 10 0 59595 40500.00000 0 -9205815.326 9719414.712 21738450.340 10 0 59595 41400.00000 0 -9538789.228 7007359.937 22620289.014 10 0 59595 42300.00000 0 -10087427.722 4247482.047 23063960.856 10 0 59595 43200.00000 0 -10845155.404 1509351.274 23060852.640 10 0 59595 44100.00000 0 -11793212.834 -1139452.741 22610978.524 10 0 59595 45000.00000 0 -12901366.617 -3635906.801 21722983.353 10 0 59595 45900.00000 0 -14129116.866 -5923917.013 20413982.434 10 0 59595 46800.00000 0 -15427352.822 -7956401.653 18709240.246 10 0 59595 47700.00000 0 -16740388.733 -9696998.619 16641693.275 10 0 59595 48600.00000 0 -18008296.134 -11121327.400 14251325.005 10 0 59595 49500.00000 0 -19169435.978 -12217753.531 11584403.796 10 0 59595 50400.00000 0 -20163085.217 -12987623.870 8692597.209 10 0 59595 51300.00000 0 -20932047.950 -13444962.938 5631978.777 10 0 59595 52200.00000 0 -21425141.272 -13615643.050 2461945.662 10 0 59595 53100.00000 0 -21599450.593 -13536062.944 -755932.198 10 0 59595 54000.00000 0 -21422258.408 -13251390.635 -3959109.235 10 0 59595 54900.00000 0 -20872563.790 -12813444.710 -7085284.154 10 0 59595 55800.00000 0 -19942126.911 -12278303.925 -10073618.182 10 0 59595 56700.00000 0 -18635992.798 -11703746.747 -12865927.210 10 0 59595 57600.00000 0 -16972470.498 -11146629.967 -15407823.672 10 0 59595 58500.00000 0 -14982566.977 -10660318.255 -17649784.911 10 0 59595 59400.00000 0 -12708898.211 -10292274.489 -19548126.384 10 0 59595 60300.00000 0 -10204122.075 -10081913.862 -21065860.043 10 0 59595 61200.00000 0 -7528958.105 -10058813.495 -22173420.562 10 0 59595 62100.00000 0 -4749876.498 -10241354.104 -22849244.992 10 0 59595 63000.00000 0 -1936552.724 -10635851.769 -23080194.383 10 0 59595 63900.00000 0 840805.989 -11236216.935 -22861809.173 10 0 59595 64800.00000 0 3514150.874 -12024155.282 -22198393.526 10 0 59595 65700.00000 0 6020186.526 -12969902.050 -21102927.179 10 0 59595 66600.00000 0 8302762.526 -14033458.705 -19596806.831 10 0 59595 67500.00000 0 10314962.673 -15166279.498 -17709422.443 10 0 59595 68400.00000 0 12020805.503 -16313336.415 -15477577.095 10 0 59595 69300.00000 0 13396486.272 -17415474.952 -12944762.157 10 0 59595 70200.00000 0 14431109.988 -18411960.880 -10160302.416 10 0 59595 71100.00000 0 15126886.710 -19243110.135 -7178388.327 10 0 59595 72000.00000 0 15498782.864 -19852890.543 -4057014.925 10 0 59595 72900.00000 0 15573645.416 -20191385.394 -856848.623 10 0 59595 73800.00000 0 15388837.811 -20217014.952 2359955.467 10 0 59595 74700.00000 0 14990447.011 -19898422.306 5530962.155 10 0 59595 75600.00000 0 14431138.818 -19215944.391 8594666.953 10 0 59595 76500.00000 0 13767753.073 -18162606.568 11491685.437 10 0 59595 77400.00000 0 13058740.907 -16744599.283 14165898.222 10 0 59595 78300.00000 0 12361552.304 -14981217.053 16565529.884 10 0 59595 79200.00000 0 11730083.904 -12904262.333 18644141.692 10 0 59595 80100.00000 0 11212293.938 -10556939.027 20361519.869 10 0 59595 81000.00000 0 10848083.876 -7992281.282 21684443.342 10 0 59595 81900.00000 0 10667534.962 -5271182.073 22587317.341 10 0 59595 82800.00000 0 10689572.900 -2460102.457 23052661.583 10 0 59595 83700.00000 0 10921116.138 371444.899 23071444.532 10 0 59595 84600.00000 0 11356743.256 3153535.210 22643257.775 10 0 59595 85500.00000 0 11978893.512 5818486.290 21776327.319 10 0 59596 0.00000 0 12758592.642 8303419.966 20487361.449 10 0 59596 900.00000 0 13656674.836 10552626.820 18801236.688 10 0 59596 1800.00000 0 14625449.691 12519633.990 16750528.745 10 0 59596 2700.00000 0 15610746.872 14168895.583 14374894.034 10 0 59596 3600.00000 0 16554252.762 15477032.537 11720314.016 10 0 59596 4500.00000 0 17396042.253 16433571.899 8838215.148 10 0 59596 5400.00000 0 18077199.683 17041154.438 5784480.465 10 0 59596 6300.00000 0 18542418.701 17315201.810 2618371.101 10 0 59596 7200.00000 0 18742471.082 17283057.019 -598621.725 10 0 59596 8100.00000 0 18636439.547 16982634.185 -3803972.108 10 0 59596 9000.00000 0 18193619.040 16460634.486 -6935338.765 10 0 59596 9900.00000 0 17395004.650 15770403.644 -9931783.876 10 0 59596 10800.00000 0 16234301.547 14969521.838 -12734966.999 10 0 59596 11700.00000 0 14718412.434 14117228.437 -15290289.897 10 0 59596 12600.00000 0 12867380.193 13271791.183 -17547968.968 10 0 59596 13500.00000 0 10713786.438 12487931.885 -19464013.555 10 0 59596 14400.00000 0 8301629.839 11814418.317 -21001090.343 10 0 59596 15300.00000 0 5684730.213 11291924.901 -22129256.433 10 0 59596 16200.00000 0 2924724.425 10951253.213 -22826546.453 10 0 59596 17100.00000 0 88737.369 10811987.935 -23079402.173 10 0 59596 18000.00000 0 -2753174.914 10881645.243 -22882936.176 10 0 59596 18900.00000 0 -5530703.451 11155349.586 -22241024.658 10 0 59596 19800.00000 0 -8175974.417 11616052.278 -21166227.726 10 0 59596 20700.00000 0 -10626135.065 12235282.291 -19679539.065 10 0 59596 21600.00000 0 -12825730.177 12974396.996 -17809970.187 10 0 59596 22500.00000 0 -14728770.464 13786279.403 -15593977.724 10 0 59596 23400.00000 0 -16300407.444 14617409.522 -13074745.396 10 0 59596 24300.00000 0 -17518146.048 15410221.638 -10301335.133 10 0 59596 25200.00000 0 -18372545.746 16105647.274 -7327724.395 10 0 59596 26100.00000 0 -18867382.545 16645735.806 -4211749.127 10 0 59596 27000.00000 0 -19019267.057 16976241.590 -1013973.508 10 0 59596 27900.00000 0 -18856736.674 17049068.059 2203490.941 10 0 59596 28800.00000 0 -18418861.940 16824465.474 5378193.359 10 0 59596 29700.00000 0 -17753427.507 16272889.700 8448554.855 10 0 59596 30600.00000 0 -16914765.661 15376443.780 11355059.536 10 0 59596 31500.00000 0 -15961334.588 14129841.889 14041402.225 10 0 59596 32400.00000 0 -14953143.838 12540855.267 16455571.111 10 0 59596 33300.00000 0 -13949135.315 10630221.422 18550845.150 10 0 59596 34200.00000 0 -13004629.509 8431020.211 20286687.788 10 0 59596 35100.00000 0 -12168943.471 5987542.299 21629520.921 10 0 59596 36000.00000 0 -11483279.558 3353696.286 22553365.281 10 0 59596 36900.00000 0 -10978972.453 591019.635 23040335.912 10 0 59596 37800.00000 0 -10676167.003 -2233625.425 23080984.062 10 0 59596 38700.00000 0 -10582981.539 -5050577.167 22674479.440 10 0 59596 39600.00000 0 -10695191.340 -7790017.743 21828629.468 10 0 59596 40500.00000 0 -10996445.513 -10384626.879 20559734.946 10 0 59596 41400.00000 0 -11459008.551 -12772137.510 18892284.240 10 0 59596 42300.00000 0 -12044996.191 -14897688.542 16858490.979 10 0 59596 43200.00000 0 -12708054.600 -16715878.118 14497682.980 10 0 59596 44100.00000 0 -13395413.311 -18192432.634 11855552.896 10 0 59596 45000.00000 0 -14050226.453 -19305422.185 8983283.852 10 0 59596 45900.00000 0 -14614104.323 -20045971.762 5936565.895 10 0 59596 46800.00000 0 -15029728.875 -20418438.214 2774521.432 10 0 59596 47700.00000 0 -15243442.585 -20440045.171 -441439.904 10 0 59596 48600.00000 0 -15207700.742 -20139990.977 -3648814.867 10 0 59596 49500.00000 0 -14883282.458 -19558066.877 -6785225.287 10 0 59596 50400.00000 0 -14241165.488 -18742843.575 -9789637.473 10 0 59596 51300.00000 0 -13263983.919 -17749502.809 -12603557.850 10 0 59596 52200.00000 0 -11947005.222 -16637405.753 -15172180.672 10 0 59596 53100.00000 0 -10298583.530 -15467501.478 -17445464.417 10 0 59596 54000.00000 0 -8340068.168 -14299685.538 -19379115.084 10 0 59596 54900.00000 0 -6105169.607 -13190220.909 -20935456.516 10 0 59596 55800.00000 0 -3638808.075 -12189330.796 -22084170.181 10 0 59596 56700.00000 0 -995492.004 -11339065.420 -22802889.707 10 0 59596 57600.00000 0 1762706.656 -10671533.085 -23077638.402 10 0 59596 58500.00000 0 4568496.071 -10207570.230 -22903101.244 10 0 59596 59400.00000 0 7351929.595 -9955906.344 -22282726.158 10 0 59596 60300.00000 0 10043085.475 -9912858.544 -21228652.819 10 0 59596 61200.00000 0 12574749.504 -10062568.038 -19761470.652 10 0 59596 62100.00000 0 14884988.965 -10377767.638 -17909811.056 10 0 59596 63000.00000 0 16919510.916 -10821046.975 -15709782.167 10 0 59596 63900.00000 0 18633706.813 -11346560.939 -13204257.639 10 0 59596 64800.00000 0 19994299.019 -11902108.143 -10442033.769 10 0 59596 65700.00000 0 20980521.438 -12431490.558 -7476871.938 10 0 59596 66600.00000 0 21584786.270 -12877053.700 -4366445.657 10 0 59596 67500.00000 0 21812810.609 -13182299.248 -1171213.355 10 0 59596 68400.00000 0 21683199.392 -13294459.085 2046760.616 10 0 59596 69300.00000 0 21226504.023 -13166921.666 5225013.234 10 0 59596 70200.00000 0 20483797.978 -12761408.098 8301894.528 10 0 59596 71100.00000 0 19504830.756 -12049806.105 11217760.177 10 0 59596 72000.00000 0 18345838.921 -11015584.710 13916121.874 10 0 59596 72900.00000 0 17067106.943 -9654730.207 16344733.672 10 0 59596 73800.00000 0 15730380.494 -7976164.053 18456594.007 10 0 59596 74700.00000 0 14396240.565 -6001625.031 20210844.902 10 0 59596 75600.00000 0 13121547.847 -3765020.066 21573552.124 10 0 59596 76500.00000 0 11957063.474 -1311269.986 22518352.377 10 0 59596 77400.00000 0 10945344.642 1305302.792 23026956.080 10 0 59596 78300.00000 0 10119001.923 4022979.056 23089496.912 10 0 59596 79200.00000 0 9499390.124 6774958.513 22704721.961 10 0 59596 80100.00000 0 9095786.610 9491892.054 21880018.963 10 0 59596 81000.00000 0 8905090.942 12104527.375 20631279.925 10 0 59596 81900.00000 0 8912058.274 14546359.932 18982603.102 10 0 59596 82800.00000 0 9090056.922 16756180.540 16965838.167 10 0 59596 83700.00000 0 9402318.832 18680414.971 14619982.163 10 0 59596 84600.00000 0 9803631.062 20275158.933 11990436.582 10 0 59596 85500.00000 0 10242397.856 21507823.912 9128138.729 99